Starlink 30349

operational
NORAD ID: 57713 Int'l Des: 2023-129 Owner: SPXS Country: US Constellation: starlink
LEOCIRCULAR

Über Starlink 30349

Beschreibung wird geladen...

Live-Position

3D-Globus wird geladen...

Nächste Überflüge

Höhenverlauf

Altitude vs Time

uPlot chart will show altitude changes over time

Zweizeiliger Elementsatz

1 57713U 23129R 26037.10180727 .00001234 00000-0 10639-3 0 9996
2 57713 43.0038 291.8601 0000982 275.1455 84.9275 15.02539127135760
Epoch: 6. Feb. 2026 • Age: 12 hours

Aktueller Status

Höhe 558.8 km
Geschwindigkeit 7.58 km/s
Subsatellitenpunkt 0.89°N, 115.42°E
Startdatum 27. Aug. 2023
Alter 2.4 years
Typ internet

Technische Details

Klassifizierung Payload
Masse 730.00 kg
Trockenmasse 700.00 kg
Gesamtmasse 730.00 kg
Länge 0.30 m
Durchmesser 4.10 m
Spannweite 29.00 m
Form Box + pan
Hersteller SPXS
Bus-Typ Starlink V2M
Phasenstatus In Orbit
Besitzer/Staat SPXS/US

Große Konstellationen

Loading constellations...